Location: Avoca
(45.7167°N, 74.7000°W)
Time: 16:13:56
(UTC+00:00)

BlueWalker 3 - Pass Details

Date: 02 December 2022
Orbit: 499 x 517 km, 53.2° (Epoch: 01 February)

Event Time Altitude Azimuth Distance (km) Brightness Sun altitude
Rises 22:21:54 0° 283° (WNW) 2,629 6.6 -11.2°
Maximum altitude 22:27:45 27° 355° (N) 1,008 3.3 -12.2°
Enters shadow 22:29:58 17° 43° (NE) 1,363 3.6 -12.5°
